Find Starlink 36344

NORAD ID: 67710 Int'l Des: 2026-025 Owner: SPXS Country: US Constellation: starlink operational
LEOCIRCULARRETROGRADE

現在のビュー

3D地球を読み込み中...

Starlink 36344について

説明を読み込み中...

次回通過

Passes for default location (London). Set your location on the main map for personalized predictions.

高度履歴

Loading altitude history...

軌道要素

1 67710U 26025T 26146.28440292 .00022147 00000-0 68605-3 0 9990
2 67710 97.2851 257.8747 0000627 358.6035 1.5206 15.33458844 17917
Epoch: May 26, 2026 • Age: 10 hours

現在のステータス

高度 472.9 km
速度 7.63 km/s
衛星直下点 -17.72°S, 64.54°W
打ち上げ日 Feb 7, 2026
運用期間 0.2 years
タイプ internet

技術仕様

分類 Payload
質量 575.00 kg
乾燥質量 530.00 kg
総質量 575.00 kg
長さ 0.30 m
直径 4.10 m
スパン 29.00 m
形状 Box + pan
製造者 SPXS
バスタイプ Starlink V2MO
フェーズステータス In Orbit
所有者/国 SPXS/US

Most Searched